Terminal Aerodrome Forecast
Issued by NWS

Home | Current Version | Previous Version | Text Only | Print | Product List | Glossary On
Versions: 1 2 3 4 5 6 7 8 9 10 11 12 13 14 15 16 17 18 19
000
FTUS41 KAKQ 101300 AAA
TAFPHF
TAF AMD
KPHF 101358Z 1014/1112 20008KT 5SM -RA BKN030 BKN150
      TEMPO 1014/1016 4SM -RA BR BKN009
     FM101800 18007KT P6SM OVC045
      TEMPO 1018/1021 5SM -TSRA OVC040CB=

USA.gov is the U.S. government's official web portal to all federal, state and local government web resources and services.